Location: Bothwell
(42.3833°S, 147.0000°E)
Time: 19:02:25
(UTC+11:00)

UWE-3 - Pass Details

Date: 01 October 2022
Orbit: 582 x 675 km, 97.7° (Epoch: 26 November)

Event Time Altitude Azimuth Distance (km) Brightness Sun altitude
Exits shadow 02:14:39 18° 175° (S) 1,659 ? -35.6°
Drops below altitude 10° 02:15:52 10° 181° (S) 2,117 ? -35.5°
Sets 02:18:12 0° 186° (S) 3,049 ? -35.2°
